Temperature
4 4 4 4 5 4 4 4 4 5 5 5 5 4 4 5 5 6 6 6 6 6 6 7 7 7 8 8 8 8 8 9 9 9 9 9 9 9 9 9 9 9 9 8
4 4 4 4 4 4 4 4 4 5 5 4 4 4 4 4 5 5 5 5 6 5 6 6 6 7 7 7 7 7 8 8 8 8 8 8 8 8 8 8 8 8 8 7
3 4 4 4 4 4 4 4 4 4 4 4 4 3 3 3 4 4 4 5 5 5 5 5 5 5 6 6 7 7 7 7 7 7 7 7 7 7 7 7 7 7 7 7
3 4 4 5 4 4 4 4 3 4 3 3 3 3 3 3 3 4 4 4 4 5 5 5 5 5 5 5 6 6 6 6 6 6 6 6 6 7 7 6 6 6 6 6
2 3 3 4 4 3 4 4 3 3 3 3 3 3 3 3 3 3 3 4 4 4 4 4 4 5 5 5 5 5 6 6 6 6 6 6 6 6 6 6 6 6 6 6
2 3 3 4 4 3 4 3 3 3 2 2 2 2 2 3 2 3 3 3 3 3 4 4 4 4 4 5 5 5 5 5 5 5 5 5 5 5 5 5 5 5 5 5
2 2 3 3 3 3 3 3 2 2 2 2 1 2 2 2 2 2 2 2 3 3 3 3 3 3 4 4 4 4 4 4 4 5 5 5 5 5 5 5 5 5 4 4
2 2 2 3 2 2 2 2 2 2 2 2 1 1 1 1 1 2 2 2 2 2 2 3 3 3 3 3 3 3 4 4 4 4 4 4 4 4 4 4 4 4 4 4
2 2 2 2 2 3 2 2 2 2 2 1 1 1 1 1 1 1 1 1 1 1 2 2 2 2 2 3 3 3 3 3 3 3 3 3 3 3 3 3 3 3 3 3
0 1 1 2 2 2 2 2 2 1 1 1 1 0 0 0 0 0 0 1 1 1 1 1 1 2 2 2 2 2 2 2 2 3 3 3 3 3 3 3 3 2 2 2
0 0 1 1 2 2 2 1 1 1 1 0 0 -0 -0 -0 -0 -0 -0 0 0 0 0 1 1 1 1 1 1 2 2 2 2 2 2 2 2 2 2 2 2 2 2 2
1 1 0 1 2 2 1 1 1 0 0 0 -0 -1 -1 -1 -1 -1 -1 -0 -0 -0 -0 0 0 1 1 1 1 1 1 1 1 1 1 1 1 1 1 1 1 1 1 1
2 2 2 2 2 1 1 1 0 0 -0 -0 -1 -1 -1 -1 -1 -1 -1 -1 -1 -1 -1 -1 -0 -0 0 0 0 0 0 1 1 1 1 1 1 1 1 1 1 0 0 0
2 2 1 1 1 1 1 0 0 -0 -0 -1 -1 -1 -1 -1 -1 -1 -1 -1 -1 -1 -1 -1 -1 -1 -1 -1 -1 -0 -0 -0 -0 -0 -0 -0 -0 -0 -0 -0 0 0 -0 -0
2 2 1 1 1 1 0 -0 -0 -0 -1 -1 -1 -2 -2 -2 -2 -2 -2 -2 -2 -2 -2 -2 -2 -2 -2 -1 -1 -1 -1 -1 -1 -1 -1 -1 -1 -1 -1 -1 -1 -1 -1 -1
1 1 1 1 0 0 -0 -1 -1 -1 -1 -1 -2 -2 -2 -2 -2 -2 -2 -2 -2 -2 -2 -2 -2 -2 -2 -2 -2 -2 -2 -2 -2 -2 -2 -2 -2 -2 -2 -2 -2 -2 -2 -2
1 0 0 0 -0 -0 -1 -1 -1 -1 -2 -2 -2 -2 -2 -2 -2 -2 -2 -3 -3 -3 -3 -3 -3 -3 -3 -3 -3 -2 -2 -2 -2 -2 -2 -2 -2 -2 -2 -2 -2 -2 -2 -2
2 1 1 1 -0 -1 -1 -1 -1 -2 -2 -2 -2 -3 -3 -3 -3 -3 -3 -3 -3 -3 -3 -3 -3 -3 -3 -3 -3 -3 -3 -3 -3 -3 -3 -3 -3 -3 -3 -3 -3 -3 -3 -3
1 1 0 -0 -1 -1 -1 -1 -2 -2 -2 -2 -3 -3 -3 -3 -3 -3 -4 -4 -3 -3 -3 -4 -4 -4 -4 -4 -4 -4 -4 -3 -3 -3 -3 -3 -3 -3 -3 -3 -3 -3 -3 -3
0 -0 -0 -1 -1 -1 -2 -2 -2 -2 -3 -3 -3 -3 -3 -3 -4 -4 -4 -4 -4 -4 -4 -4 -4 -4 -4 -4 -4 -4 -4 -4 -4 -4 -4 -4 -4 -4 -4 -4 -4 -4 -4 -4
-0 -0 -1 -1 -1 -1 -2 -2 -2 -3 -3 -3 -3 -4 -4 -4 -4 -4 -4 -4 -4 -4 -5 -5 -5 -4 -5 -4 -4 -4 -4 -4 -5 -5 -4 -5 -5 -5 -5 -5 -5 -5 -5 -4
-0 -1 -1 -1 -1 -2 -2 -2 -3 -3 -3 -3 -4 -4 -4 -4 -4 -4 -4 -4 -5 -5 -5 -5 -5 -5 -5 -5 -5 -5 -5 -5 -5 -5 -5 -5 -5 -5 -5 -5 -5 -5 -5 -5
-1 -1 -1 -2 -2 -2 -2 -3 -3 -3 -4 -4 -4 -4 -4 -4 -5 -5 -5 -5 -5 -5 -5 -5 -5 -5 -6 -6 -5 -5 -5 -5 -5 -5 -5 -6 -6 -6 -6 -6 -6 -5 -5 -5
-1 -1 -2 -2 -2 -2 -2 -3 -3 -3 -4 -4 -4 -4 -5 -5 -5 -5 -5 -5 -5 -5 -5 -6 -6 -6 -6 -6 -6 -6 -6 -6 -6 -6 -6 -6 -6 -6 -6 -6 -6 -6 -6 -6
-1 -2 -2 -2 -2 -3 -3 -3 -3 -4 -4 -4 -4 -5 -5 -5 -5 -5 -5 -5 -5 -6 -6 -6 -6 -6 -6 -6 -6 -6 -6 -6 -6 -6 -6 -6 -6 -6 -6 -6 -6 -6 -6 -6
-2 -2 -2 -2 -3 -3 -3 -4 -4 -4 -4 -4 -4 -5 -5 -5 -5 -5 -5 -6 -6 -6 -6 -6 -6 -6 -6 -6 -6 -6 -6 -6 -7 -7 -7 -7 -7 -7 -7 -7 -7 -7 -6 -6
-2 -2 -3 -3 -3 -4 -4 -4 -4 -5 -5 -5 -5 -5 -5 -6 -6 -6 -6 -6 -6 -6 -6 -6 -7 -7 -7 -7 -7 -7 -7 -7 -7 -7 -7 -7 -7 -7 -7 -7 -7 -7 -7 -7
Wind_Speed
2 2 1 1 1 1 3 4 4 4 4 6 6 6 6 5 5 6 7 6 6 5 5 5 5 4 3 3 2 1 1 1 1 1 2 3 3 4 4 4 5 5 6 5
2 2 0 1 2 2 2 2 3 3 5 4 3 3 4 6 7 7 7 7 6 6 6 6 6 5 4 4 3 0 1 1 1 2 2 3 3 4 4 5 5 5 5 5
2 5 3 3 3 2 1 1 2 3 3 4 4 5 5 6 7 7 7 8 7 7 6 6 6 5 5 4 3 1 0 1 1 2 3 3 3 4 5 5 5 5 4 5
1 3 2 3 1 1 2 0 1 1 3 4 3 3 3 5 6 7 8 8 8 7 7 6 5 5 5 4 3 1 1 1 2 2 3 3 4 5 5 4 4 4 4 4
1 1 5 4 1 0 1 2 1 1 3 4 4 2 3 5 6 7 7 7 7 7 6 6 6 5 4 4 3 2 2 2 2 3 3 4 4 5 4 4 4 4 4 5
2 2 4 4 1 1 1 3 2 1 2 4 4 3 4 6 8 8 8 7 7 7 6 6 6 5 4 4 3 3 3 3 2 2 3 4 5 4 3 4 4 4 4 4
3 3 6 4 2 1 2 3 1 1 2 2 1 3 5 6 7 7 7 7 7 6 6 6 5 5 4 4 4 4 3 2 2 1 2 3 3 3 4 4 4 4 4 3
4 4 6 1 3 3 3 0 0 1 2 2 4 5 6 6 7 7 8 8 7 6 7 6 5 4 4 5 5 4 3 2 2 1 1 2 3 3 4 5 4 4 3 2
6 6 1 2 3 2 2 1 1 2 3 3 4 6 7 7 7 7 7 7 6 6 7 6 5 4 5 6 5 3 3 3 2 1 1 1 3 4 4 4 4 4 4 3
4 5 3 3 2 1 1 2 2 2 3 3 4 6 7 7 8 8 8 7 7 6 6 7 6 5 5 5 4 3 3 2 2 1 0 0 1 2 3 4 4 4 4 4
4 4 2 3 4 4 2 1 2 2 2 3 4 6 6 7 8 8 8 7 6 6 7 7 6 6 5 4 3 3 2 2 1 1 0 0 1 2 3 3 4 5 5 5
7 6 5 5 5 4 3 3 3 2 3 3 4 6 7 7 7 7 8 7 7 7 7 7 6 6 6 5 3 2 2 2 1 1 1 0 0 1 1 2 4 5 6 5
5 3 4 3 3 3 3 3 3 3 4 5 4 5 6 6 7 7 7 7 7 7 7 6 6 6 6 5 3 3 2 2 1 1 1 1 1 1 2 2 2 4 5 6
4 4 3 3 3 3 2 2 2 3 3 4 4 5 5 6 6 7 8 8 7 7 6 6 5 6 5 4 3 3 2 2 2 2 1 1 2 2 2 2 2 2 3 5
6 5 4 3 2 2 1 1 2 4 4 4 4 5 5 6 7 8 8 7 7 6 6 5 5 6 5 4 3 3 2 2 1 1 1 1 2 2 2 2 3 3 2 3
5 4 3 3 3 3 2 2 4 5 5 5 5 6 6 6 7 7 7 6 6 6 6 5 6 6 5 4 4 3 2 3 2 1 1 1 2 2 2 2 2 3 3 3
7 5 5 4 4 4 4 4 5 6 5 6 6 6 6 6 7 7 7 6 6 6 6 5 6 6 5 4 3 2 2 3 3 2 2 2 2 2 2 2 3 3 3 3
8 7 6 6 5 5 5 5 5 5 5 6 6 5 5 6 7 8 8 6 5 6 5 5 6 5 4 4 3 2 2 2 2 2 2 2 2 2 2 3 3 3 3 4
6 6 5 5 4 4 4 5 5 5 5 5 5 6 6 6 6 7 6 5 6 7 6 5 7 5 4 5 4 2 2 2 2 2 2 3 3 2 2 3 3 3 3 3
5 5 4 3 3 3 3 4 4 4 4 4 5 6 6 6 6 6 5 5 5 5 5 6 5 4 5 5 5 3 3 3 3 3 2 2 3 3 3 3 3 3 3 3
5 4 3 3 3 3 3 3 4 5 5 4 5 6 7 6 5 5 5 6 5 4 5 7 4 4 4 4 5 3 3 3 3 3 3 3 3 3 3 3 3 3 3 3
4 4 3 3 2 3 3 3 3 4 5 5 5 5 6 6 6 5 5 5 5 7 5 4 4 6 6 5 2 2 3 3 3 2 2 3 3 3 3 3 4 4 4 4
4 3 3 3 3 3 3 3 3 4 5 5 6 6 6 5 4 4 5 4 4 7 5 4 6 8 7 3 2 2 3 3 3 3 3 3 3 3 4 4 4 4 4 4
3 3 2 2 1 2 3 4 4 4 5 5 5 5 5 5 4 3 4 7 8 8 4 6 8 8 6 2 2 2 3 3 3 3 3 3 3 3 4 4 4 4 4 4
3 2 2 2 2 3 4 4 4 4 4 4 5 5 4 3 3 4 4 4 7 7 4 6 8 7 4 2 3 3 3 3 3 3 3 3 3 3 4 4 4 4 4 4
2 2 3 3 3 3 3 2 3 3 3 4 4 3 3 3 3 3 3 4 5 6 4 3 4 5 3 3 3 3 3 4 4 3 3 3 3 4 4 4 4 4 4 4
1 1 1 1 2 2 2 2 3 3 3 4 5 4 3 3 3 3 3 3 3 3 3 3 3 3 3 3 3 3 3 3 3 3 3 3 3 3 4 4 4 4 4 4
Wind_Direction
263 270 202 212 263 157 188 203 208 238 251 289 315 313 317 325 337 347 348 350 350 345 340 341 341 338 335 329 328 335 114 137 180 154 138 133 135 137 136 137 139 136 131 127
349 8 23 338 303 239 233 229 233 277 289 303 327 357 1 352 350 349 346 343 342 339 337 336 331 328 327 319 313 302 165 206 186 154 147 150 153 146 142 141 137 136 140 141
311 324 351 310 287 212 176 211 201 240 274 340 355 360 357 350 352 345 339 335 332 329 325 323 321 320 318 312 313 310 219 231 207 184 177 177 169 161 161 158 149 147 148 145
354 13 271 258 345 171 162 13 356 335 345 353 330 327 356 359 353 348 337 333 330 328 326 325 324 325 320 317 315 293 249 243 220 196 194 185 177 179 171 158 157 157 157 156
109 294 284 295 310 136 199 293 351 320 337 347 341 352 348 4 4 345 332 326 324 323 320 324 328 328 330 327 323 307 281 273 252 212 198 190 191 187 174 160 161 161 162 164
133 193 246 263 289 290 115 289 352 20 348 348 4 346 316 346 345 339 337 333 332 333 335 335 329 329 334 321 315 301 290 283 270 225 205 204 197 185 172 167 169 162 165 171
173 225 263 262 270 96 153 266 349 12 352 349 298 269 298 319 328 332 332 330 333 336 335 329 327 337 337 324 312 307 305 306 297 253 217 202 186 175 166 163 161 162 167 175
172 206 252 219 132 170 217 350 43 327 319 305 298 307 314 318 322 328 331 331 334 336 333 331 334 339 331 319 315 320 322 323 310 286 231 177 168 167 163 163 165 170 174 192
194 211 238 171 172 175 144 171 243 272 292 298 302 306 312 317 320 323 327 326 326 325 325 329 334 332 320 316 319 324 331 326 314 300 238 174 173 172 167 170 177 186 189 205
234 247 233 219 197 169 183 212 243 260 278 286 293 302 311 316 320 323 323 322 323 322 322 323 329 330 319 316 322 326 323 320 318 310 325 144 169 176 183 187 190 194 199 207
235 253 252 221 208 206 214 233 261 278 280 284 292 301 306 310 313 315 317 319 322 318 314 314 319 323 328 328 328 321 310 307 313 312 275 232 205 211 211 212 205 201 203 199
214 208 189 220 213 197 204 231 246 272 293 297 287 291 302 304 306 310 313 316 318 318 315 312 314 316 319 318 314 309 306 303 300 298 283 241 243 319 290 251 241 232 225 219
195 178 180 206 194 187 207 231 247 257 268 289 293 289 297 301 307 311 313 315 314 312 310 309 312 313 317 317 309 292 284 290 294 282 266 258 254 256 298 314 278 254 245 244
173 141 166 191 204 209 219 237 255 270 267 272 283 291 295 299 306 308 309 310 310 306 307 305 307 312 315 315 306 293 284 283 285 271 261 253 244 242 244 259 283 286 268 258
195 185 189 196 202 214 225 246 283 285 278 277 281 289 293 296 299 301 304 308 309 308 308 309 309 311 313 312 304 293 290 286 276 274 272 263 253 247 244 244 254 269 281 272
182 176 175 186 210 221 237 254 268 276 280 280 287 290 288 286 291 296 301 305 305 305 306 309 309 310 311 305 300 293 288 291 291 274 267 266 260 256 252 250 256 260 262 261
163 188 197 212 225 236 238 247 253 268 277 279 283 289 294 297 298 298 301 298 289 288 293 299 302 308 309 303 291 283 282 283 285 280 261 261 260 258 262 261 260 262 266 270
187 189 188 199 215 237 256 263 265 272 279 283 289 293 292 290 290 294 298 299 299 298 296 295 299 307 310 309 298 282 272 271 272 267 265 262 264 260 258 259 263 269 277 277
179 181 188 200 211 224 241 256 267 274 283 290 292 288 282 279 282 289 296 297 298 300 303 303 312 314 307 306 306 281 272 271 271 268 266 268 271 267 265 264 266 266 271 270
174 178 186 201 210 222 245 258 267 276 281 286 291 291 287 283 284 289 292 286 278 277 290 299 305 300 298 298 302 286 274 269 268 271 269 262 263 266 266 268 271 271 270 270
178 181 188 207 233 248 248 252 260 274 284 284 283 286 287 291 290 288 288 292 290 286 293 301 303 296 293 295 295 286 280 275 271 270 271 272 273 273 272 271 274 276 276 276
175 183 201 213 232 262 270 262 261 273 283 284 283 285 289 292 292 286 269 268 287 305 307 295 291 297 302 301 287 283 284 282 276 273 272 275 277 278 278 278 276 275 272 271
177 190 202 215 232 259 280 275 268 273 277 282 285 284 283 283 282 283 291 285 290 305 308 293 300 308 313 316 303 291 288 284 281 278 276 274 273 274 276 277 277 276 273 272
177 191 206 214 215 256 280 284 285 281 278 281 278 277 281 288 286 261 264 296 309 311 307 307 314 319 326 331 306 293 287 282 278 275 273 271 270 271 274 275 277 278 278 278
177 185 191 206 237 254 265 281 293 291 292 290 285 283 279 267 270 290 294 297 310 317 317 319 324 328 333 314 303 295 291 286 285 285 278 276 275 276 278 279 278 279 278 277
180 200 219 231 239 250 259 269 279 285 291 298 300 296 293 288 284 289 294 299 305 315 318 314 319 323 320 311 305 302 300 305 309 306 295 289 285 283 284 284 282 278 277 277
179 202 229 271 269 252 253 263 274 283 286 289 295 297 298 299 299 301 302 304 309 310 310 311 314 314 312 311 308 306 303 300 296 295 295 291 286 282 283 282 281 279 278 276
Height
1487 1485 1484 1484 1483 1482 1483 1483 1485 1481 1479 1476 1475 1474 1472 1470 1468 1466 1464 1464 1463 1462 1460 1459 1458 1458 1458 1458 1458 1458 1459 1460 1461 1461 1462 1464 1465 1467 1468 1470 1472 1474 1475 1476
1486 1484 1484 1484 1482 1482 1482 1481 1481 1479 1478 1475 1474 1472 1471 1469 1468 1466 1465 1464 1463 1461 1460 1458 1457 1456 1456 1455 1456 1456 1456 1457 1457 1458 1459 1460 1462 1463 1464 1466 1468 1469 1471 1472
1489 1487 1483 1484 1481 1480 1480 1480 1479 1479 1478 1475 1474 1473 1471 1470 1469 1467 1466 1464 1462 1460 1459 1457 1456 1455 1454 1453 1453 1453 1453 1454 1454 1455 1456 1457 1458 1459 1461 1462 1464 1466 1467 1469
1491 1489 1488 1483 1479 1478 1478 1479 1478 1477 1476 1475 1475 1473 1472 1471 1469 1468 1466 1464 1462 1460 1458 1456 1455 1453 1452 1451 1451 1450 1450 1450 1451 1451 1452 1453 1454 1455 1457 1458 1460 1462 1463 1465
1494 1494 1489 1481 1479 1479 1479 1478 1477 1477 1477 1476 1474 1472 1471 1471 1469 1468 1466 1464 1461 1459 1457 1455 1453 1451 1450 1449 1449 1448 1447 1447 1447 1447 1448 1449 1450 1451 1453 1454 1456 1458 1459 1461
1495 1492 1490 1480 1478 1477 1479 1479 1477 1476 1476 1476 1474 1475 1473 1471 1469 1466 1464 1462 1460 1458 1455 1453 1451 1450 1448 1447 1446 1445 1444 1444 1444 1444 1444 1445 1446 1448 1449 1451 1452 1454 1456 1457
1495 1494 1485 1479 1477 1477 1483 1480 1477 1476 1476 1476 1475 1475 1473 1470 1468 1465 1463 1461 1458 1456 1454 1452 1450 1448 1446 1444 1443 1442 1442 1441 1441 1441 1441 1442 1443 1444 1446 1447 1449 1450 1452 1453
1491 1492 1487 1476 1476 1479 1478 1476 1476 1475 1475 1475 1474 1472 1470 1468 1466 1463 1461 1458 1456 1453 1451 1449 1447 1445 1443 1442 1441 1440 1439 1438 1438 1438 1438 1439 1440 1441 1442 1443 1445 1446 1448 1449
1482 1480 1475 1474 1474 1475 1475 1475 1475 1474 1474 1473 1471 1470 1468 1465 1463 1461 1458 1456 1453 1451 1449 1447 1445 1443 1441 1439 1438 1437 1436 1435 1435 1435 1435 1436 1436 1437 1439 1440 1441 1442 1444 1445
1478 1473 1472 1472 1472 1473 1473 1474 1473 1473 1472 1471 1469 1467 1465 1463 1461 1458 1456 1453 1451 1449 1446 1444 1442 1440 1439 1437 1435 1434 1433 1433 1432 1432 1432 1432 1433 1434 1435 1436 1437 1438 1439 1441
1474 1471 1470 1470 1470 1471 1471 1471 1471 1470 1470 1468 1467 1465 1463 1461 1458 1456 1453 1451 1449 1446 1444 1442 1440 1438 1436 1434 1433 1432 1431 1430 1430 1429 1429 1429 1430 1431 1431 1432 1433 1434 1435 1436
1467 1464 1466 1466 1467 1468 1468 1468 1468 1467 1466 1465 1464 1462 1460 1458 1456 1453 1451 1448 1446 1443 1441 1439 1437 1435 1434 1432 1431 1429 1428 1428 1427 1426 1426 1426 1426 1427 1427 1429 1430 1430 1431 1432
1459 1460 1462 1463 1464 1465 1465 1465 1465 1464 1463 1462 1461 1459 1457 1455 1452 1450 1448 1445 1443 1440 1438 1436 1434 1432 1431 1429 1428 1426 1425 1425 1424 1424 1423 1423 1423 1423 1424 1425 1426 1427 1428 1428
1457 1459 1460 1461 1462 1462 1462 1462 1462 1461 1460 1459 1457 1455 1453 1451 1449 1447 1444 1442 1439 1437 1435 1433 1431 1429 1428 1426 1424 1423 1422 1422 1421 1421 1421 1421 1420 1421 1421 1421 1422 1423 1424 1425
1454 1456 1457 1458 1459 1459 1459 1459 1458 1457 1456 1455 1453 1451 1449 1447 1445 1443 1441 1439 1436 1434 1432 1430 1428 1426 1425 1423 1422 1420 1420 1419 1418 1418 1418 1418 1418 1418 1418 1419 1419 1419 1420 1421
1451 1452 1454 1455 1455 1455 1455 1455 1454 1453 1452 1451 1449 1448 1446 1444 1442 1439 1437 1435 1433 1431 1429 1427 1425 1423 1422 1420 1419 1418 1417 1416 1415 1415 1415 1415 1415 1415 1415 1415 1415 1416 1416 1417
1447 1448 1450 1450 1451 1451 1451 1451 1450 1449 1448 1447 1445 1444 1442 1440 1437 1436 1434 1432 1430 1428 1426 1424 1422 1420 1419 1417 1416 1415 1414 1413 1412 1412 1412 1412 1412 1412 1412 1412 1412 1412 1413 1413
1443 1444 1446 1447 1447 1448 1447 1447 1447 1446 1444 1443 1442 1440 1438 1436 1434 1432 1430 1428 1426 1424 1422 1421 1419 1417 1416 1414 1413 1412 1411 1410 1409 1409 1409 1409 1408 1408 1408 1408 1408 1409 1409 1409
1439 1441 1443 1444 1444 1444 1444 1443 1443 1442 1441 1439 1437 1436 1434 1432 1430 1428 1426 1424 1422 1420 1419 1417 1415 1413 1412 1411 1410 1408 1408 1407 1406 1406 1406 1405 1405 1405 1405 1404 1404 1405 1405 1405
1436 1438 1439 1440 1441 1441 1440 1440 1439 1438 1437 1435 1433 1432 1430 1428 1426 1424 1422 1420 1418 1417 1415 1413 1411 1410 1409 1407 1406 1405 1404 1404 1403 1403 1402 1402 1402 1401 1401 1401 1400 1400 1400 1400
1433 1435 1436 1437 1437 1437 1437 1436 1435 1434 1433 1432 1430 1428 1426 1424 1422 1420 1418 1416 1415 1413 1411 1409 1408 1406 1405 1404 1403 1402 1401 1400 1400 1399 1399 1398 1398 1398 1397 1397 1397 1397 1396 1396
1430 1432 1433 1434 1434 1434 1434 1433 1432 1431 1429 1428 1426 1424 1422 1420 1419 1417 1415 1413 1411 1410 1408 1406 1404 1403 1402 1400 1399 1398 1398 1397 1396 1396 1395 1395 1394 1394 1393 1393 1393 1393 1392 1392
1428 1429 1430 1431 1431 1431 1430 1430 1428 1427 1426 1424 1423 1421 1419 1417 1415 1414 1412 1410 1408 1406 1404 1403 1401 1400 1398 1397 1396 1395 1394 1394 1393 1392 1392 1391 1390 1390 1389 1389 1389 1388 1388 1388
1425 1426 1427 1428 1428 1427 1427 1426 1425 1424 1422 1421 1420 1418 1416 1414 1412 1411 1409 1407 1405 1403 1401 1400 1398 1396 1395 1394 1393 1392 1391 1390 1389 1389 1388 1387 1387 1386 1385 1385 1384 1384 1384 1383
1423 1424 1424 1425 1425 1424 1424 1423 1421 1420 1419 1418 1416 1415 1413 1411 1409 1408 1406 1404 1402 1400 1399 1397 1395 1394 1392 1391 1390 1388 1387 1387 1386 1385 1384 1383 1383 1382 1381 1381 1380 1380 1379 1379
1421 1421 1422 1422 1422 1421 1420 1419 1418 1417 1415 1414 1413 1411 1409 1408 1406 1405 1403 1401 1400 1398 1396 1394 1393 1391 1389 1388 1387 1385 1384 1383 1382 1382 1381 1380 1379 1378 1378 1377 1376 1376 1375 1374
1418 1419 1419 1419 1419 1418 1417 1416 1415 1413 1412 1410 1409 1407 1406 1404 1403 1401 1400 1398 1397 1395 1394 1392 1390 1389 1387 1385 1384 1383 1381 1380 1379 1378 1378 1377 1376 1375 1374 1373 1373 1372 1371 1370